Home   Weather   Wellington   Past weeks

Flag for New Zealand Past Weather in Wellington, New Zealand — Yesterday and Last 2 Weeks

Now
63 °F

Partly sunny.


Feels Like: 63 °F
Forecast: 61 / 63 °F
Wind: 21 mph from North

Location: Wellington Airport

Current Time: Apr 27, 2017 at 3:46:12 pm

Latest Report: Apr 27, 2017 at 3:00 pm


Visibility: N/A

Pressure: 30.04 "Hg

Humidity: 77%

Dew Point: 55 °F

Location of WellingtonLocation

Past Weather in Wellington — Graph

°F

Wellington Temperature Yesterday

Maximum temperature yesterday: 63 °F (at 11:00 am)
Minimum temperature yesterday: 54 °F (at 12:30 am)
Average temperature yesterday: 59 °F

High & Low Weather Summary for the Past Weeks

 TemperatureHumidityPressure
High66 °F (Apr 12, 1:00 pm)100% (Apr 12, 4:00 pm)30.42 "Hg (Apr 12, 4:00 pm)
Low45 °F (Apr 19, 2:00 am)59% (Apr 20, 12:00 pm)29.24 "Hg (Apr 14, 2:00 am)
Average58 °F83%30.02 "Hg
* Reported Apr 12 1:00 pm — Apr 27 1:30 pm, Wellington, Weather by CustomWeather, © 2017

Note: Actual official high and low records may vary slightly from our data, if they occured in-between our weather recording intervals... More about our weather records

Advertising

Wellington Weather History for the Previous 24 Hours

Scroll right to see more
 ConditionsComfort  
Time TempWeatherWind HumidityBarometerVisibility
1:30 pm
Thu, Apr 27
63 °FBroken clouds.22 mph77%30.04 "HgN/A
1:00 pm63 °FPartly sunny.22 mph77%30.04 "HgN/A
12:30 pm64 °FBroken clouds.23 mph73%30.07 "HgN/A
12:00 pm64 °FPassing clouds.23 mph68%30.07 "HgN/A
11:30 am64 °FMild.24 mph68%30.07 "HgN/A
11:00 am63 °FPassing clouds.24 mph77%30.07 "HgN/A
10:30 am63 °FScattered clouds.23 mph77%30.07 "HgN/A
9:30 am63 °FBroken clouds.24 mph77%30.07 "HgN/A
9:00 am63 °FBroken clouds.25 mph77%30.07 "HgN/A
8:30 am61 °FPartly sunny.23 mph77%30.07 "HgN/A
8:00 am61 °FBroken clouds.22 mph77%30.07 "HgN/A
7:30 am61 °FPartly sunny.22 mph77%30.04 "HgN/A
6:30 am59 °FPartly cloudy.22 mph82%30.04 "HgN/A
6:00 am59 °FPassing clouds.23 mph82%30.04 "HgN/A
5:30 am59 °FPassing clouds.23 mph82%30.04 "HgN/A
5:00 am59 °FPartly cloudy.23 mph82%30.04 "HgN/A
4:30 am59 °FPassing clouds.22 mph82%30.04 "HgN/A
4:00 am59 °FPassing clouds.20 mph82%30.04 "HgN/A
3:30 am59 °FPartly cloudy.18 mph82%30.04 "HgN/A
3:00 am59 °FPassing clouds.20 mph82%30.04 "HgN/A
2:30 am59 °FPassing clouds.20 mph82%30.07 "HgN/A
2:00 am59 °FPassing clouds.17 mph82%30.07 "HgN/A
1:30 am59 °FPassing clouds.20 mph82%30.07 "HgN/A
1:00 am61 °FPassing clouds.21 mph77%30.07 "HgN/A
12:00 am61 °FPassing clouds.21 mph77%30.07 "HgN/A
11:30 pm
Wed, Apr 26
61 °FPassing clouds.23 mph77%30.07 "HgN/A
11:00 pm61 °FPartly cloudy.22 mph83%30.07 "HgN/A
10:30 pm61 °FPassing clouds.22 mph83%30.07 "HgN/A
10:00 pm61 °FPartly cloudy.22 mph83%30.07 "HgN/A
9:30 pm61 °FPassing clouds.23 mph83%30.04 "HgN/A
9:00 pm61 °FPassing clouds.24 mph83%30.04 "HgN/A
8:30 pm61 °FPassing clouds.22 mph83%30.04 "HgN/A
8:00 pm61 °FPassing clouds.23 mph83%30.04 "HgN/A
7:30 pm61 °FPassing clouds.25 mph83%30.04 "HgN/A
7:00 pm61 °FPassing clouds.24 mph83%30.04 "HgN/A
6:30 pm61 °FPartly cloudy.22 mph83%30.04 "HgN/A
6:00 pm61 °FPassing clouds.23 mph83%30.04 "HgN/A
5:30 pm61 °FPartly sunny.23 mph83%30.04 "HgN/A
5:00 pm61 °FPartly sunny.22 mph83%30.04 "HgN/A
4:30 pm61 °FPartly sunny.22 mph83%30.04 "HgN/A
4:00 pm63 °FBroken clouds.23 mph77%30.04 "HgN/A
3:30 pm63 °FPartly sunny.20 mph77%30.04 "HgN/A
3:00 pm63 °FPartly sunny.21 mph77%30.04 "HgN/A
Weather by CustomWeather, © 2017

See weather overviewHow to use our weather pages